| time (UTC) | temp C | wind direction | speed KPH | gust KPH | rain 1hr cm | rain 24hr cm | rain mn cm | humidity % | barometer mb |
| 20260502233648 | 5 | 49 | 6.4 | 8.0 | 0.00 | 0.00 | 0.00 | 61 | 1006.3 |
| 20260502233149 | 6 | 93 | 8.0 | 11.3 | 0.00 | 0.00 | 0.00 | 61 | 1006.4 |
| 20260502232649 | 6 | 107 | 6.4 | 3.2 | 0.00 | 0.00 | 0.00 | 60 | 1006.4 |
| 20260502232147 | 6 | 174 | 6.4 | 4.8 | 0.00 | 0.00 | 0.00 | 59 | 1006.4 |
| 20260502231647 | 6 | 103 | 6.4 | 4.8 | 0.00 | 0.00 | 0.00 | 59 | 1006.5 |
| 20260502231148 | 6 | 113 | 4.8 | 8.0 | 0.00 | 0.00 | 0.00 | 59 | 1006.6 |
| 20260502230648 | 6 | 148 | 8.0 | 4.8 | 0.00 | 0.00 | 0.00 | 58 | 1006.7 |
| 20260502230149 | 6 | 169 | 6.4 | 6.4 | 0.00 | 0.00 | 0.00 | 58 | 1007.1 |
| 20260502225649 | 6 | 91 | 4.8 | 3.2 | 0.00 | 0.00 | 0.00 | 58 | 1007.1 |
| 20260502225147 | 6 | 93 | 9.7 | 6.4 | 0.00 | 0.00 | 0.00 | 57 | 1007.1 |
| 20260502224648 | 6 | 93 | 8.0 | 9.7 | 0.00 | 0.00 | 0.00 | 57 | 1007.1 |
| 20260502224148 | 6 | 82 | 8.0 | 8.0 | 0.00 | 0.00 | 0.00 | 57 | 1007.1 |
| 20260502223648 | 6 | 124 | 6.4 | 9.7 | 0.00 | 0.00 | 0.00 | 58 | 1007.2 |
| 20260502223149 | 6 | 148 | 8.0 | 8.0 | 0.00 | 0.00 | 0.00 | 58 | 1007.2 |
| 20260502222649 | 6 | 115 | 8.0 | 11.3 | 0.00 | 0.00 | 0.00 | 59 | 1007.2 |
| 20260502222147 | 6 | 107 | 8.0 | 3.2 | 0.00 | 0.00 | 0.00 | 59 | 1007.3 |
| 20260502221647 | 5 | 103 | 9.7 | 8.0 | 0.00 | 0.00 | 0.00 | 60 | 1007.3 |
| 20260502221148 | 6 | 125 | 8.0 | 6.4 | 0.00 | 0.00 | 0.00 | 59 | 1007.4 |
| 20260502220648 | 5 | 135 | 9.7 | 11.3 | 0.00 | 0.00 | 0.00 | 60 | 1007.4 |
| 20260502220148 | 6 | 187 | 9.7 | 8.0 | 0.00 | 0.00 | 0.00 | 59 | 1007.4 |
| 20260502215649 | 6 | 139 | 8.0 | 9.7 | 0.00 | 0.00 | 0.00 | 60 | 1007.5 |
| 20260502215147 | 6 | 159 | 9.7 | 3.2 | 0.00 | 0.00 | 0.00 | 60 | 1007.6 |
| 20260502214647 | 6 | 156 | 8.0 | 11.3 | 0.00 | 0.00 | 0.00 | 60 | 1007.8 |
| 20260502214147 | 6 | 245 | 8.0 | 16.1 | 0.00 | 0.00 | 0.00 | 59 | 1007.8 |
| 20260502213648 | 6 | 156 | 4.8 | 9.7 | 0.00 | 0.00 | 0.00 | 60 | 1007.8 |
| 20260502213148 | 6 | 108 | 11.3 | 9.7 | 0.00 | 0.00 | 0.00 | 59 | 1007.9 |
| 20260502212649 | 6 | 135 | 8.0 | 6.4 | 0.00 | 0.00 | 0.00 | 59 | 1008.0 |
| 20260502212146 | 6 | 229 | 8.0 | 8.0 | 0.00 | 0.00 | 0.00 | 59 | 1008.0 |
| 20260502211647 | 6 | 155 | 8.0 | 11.3 | 0.00 | 0.00 | 0.00 | 59 | 1008.0 |
| 20260502211147 | 6 | 100 | 8.0 | 8.0 | 0.00 | 0.00 | 0.00 | 59 | 1008.1 |
| 20260502210648 | 6 | 226 | 4.8 | 11.3 | 0.00 | 0.00 | 0.00 | 59 | 1008.1 |
| 20260502210148 | 6 | 141 | 6.4 | 9.7 | 0.00 | 0.00 | 0.00 | 58 | 1008.2 |
| 20260502205649 | 6 | 150 | 8.0 | 3.2 | 0.00 | 0.00 | 0.00 | 59 | 1008.3 |
| 20260502205146 | 6 | 113 | 8.0 | 3.2 | 0.00 | 0.00 | 0.00 | 59 | 1008.5 |
| 20260502204647 | 6 | 120 | 9.7 | 12.9 | 0.00 | 0.00 | 0.00 | 59 | 1008.7 |
| 20260502204147 | 6 | 186 | 8.0 | 11.3 | 0.00 | 0.00 | 0.00 | 59 | 1008.7 |
| 20260502203647 | 6 | 128 | 8.0 | 12.9 | 0.00 | 0.00 | 0.00 | 58 | 1008.8 |
| 20260502203148 | 6 | 165 | 8.0 | 12.9 | 0.00 | 0.00 | 0.00 | 57 | 1008.9 |
| 20260502202648 | 6 | 152 | 4.8 | 4.8 | 0.00 | 0.00 | 0.00 | 58 | 1009.1 |
| 20260502202146 | 6 | 110 | 4.8 | 8.0 | 0.00 | 0.00 | 0.00 | 59 | 1009.2 |
| 20260502201646 | 6 | 159 | 9.7 | 8.0 | 0.00 | 0.00 | 0.00 | 59 | 1009.2 |
| 20260502201147 | 6 | 104 | 8.0 | 9.7 | 0.00 | 0.00 | 0.00 | 59 | 1009.2 |
| 20260502200647 | 6 | 87 | 9.7 | 6.4 | 0.00 | 0.00 | 0.00 | 59 | 1009.2 |
| 20260502200148 | 6 | 51 | 11.3 | 11.3 | 0.00 | 0.00 | 0.00 | 58 | 1009.3 |
| 20260502195648 | 6 | 84 | 9.7 | 4.8 | 0.00 | 0.00 | 0.00 | 59 | 1009.4 |
| 20260502195146 | 6 | 165 | 8.0 | 4.8 | 0.00 | 0.00 | 0.00 | 59 | 1009.4 |
| 20260502194646 | 6 | 149 | 4.8 | 4.8 | 0.00 | 0.00 | 0.00 | 60 | 1009.4 |
| 20260502194147 | 6 | 82 | 11.3 | 6.4 | 0.00 | 0.00 | 0.00 | 59 | 1009.5 |
| 20260502193647 | 6 | 125 | 11.3 | 6.4 | 0.00 | 0.00 | 0.00 | 59 | 1009.5 |
| 20260502193147 | 6 | 70 | 8.0 | 4.8 | 0.00 | 0.00 | 0.00 | 60 | 1009.5 |
| 20260502192648 | 6 | 96 | 8.0 | 11.3 | 0.00 | 0.00 | 0.00 | 58 | 1009.6 |
| 20260502192145 | 6 | 75 | 8.0 | 8.0 | 0.00 | 0.00 | 0.00 | 58 | 1009.7 |
| 20260502191646 | 6 | 127 | 8.0 | 9.7 | 0.00 | 0.00 | 0.00 | 58 | 1009.7 |
| 20260502191146 | 6 | 96 | 9.7 | 11.3 | 0.00 | 0.00 | 0.00 | 58 | 1009.8 |
| 20260502190647 | 6 | 131 | 8.0 | 6.4 | 0.00 | 0.00 | 0.00 | 58 | 1009.9 |
| 20260502190147 | 6 | 108 | 8.0 | 8.0 | 0.00 | 0.00 | 0.00 | 58 | 1009.9 |
| 20260502185647 | 6 | 145 | 8.0 | 9.7 | 0.00 | 0.00 | 0.00 | 58 | 1010.1 |
| 20260502185145 | 6 | 97 | 1.6 | 6.4 | 0.00 | 0.00 | 0.00 | 59 | 1010.2 |
| 20260502184646 | 6 | 107 | 8.0 | 6.4 | 0.00 | 0.00 | 0.00 | 59 | 1010.2 |
| 20260502184146 | 6 | 142 | 6.4 | 1.6 | 0.00 | 0.00 | 0.00 | 60 | 1010.2 |
| 20260502183646 | 5 | 215 | 9.7 | 3.2 | 0.00 | 0.00 | 0.00 | 59 | 1010.3 |
| 20260502183147 | 6 | 198 | 8.0 | 8.0 | 0.00 | 0.00 | 0.00 | 59 | 1010.4 |
| 20260502182647 | 5 | 125 | 6.4 | 11.3 | 0.00 | 0.00 | 0.00 | 61 | 1010.5 |
| 20260502182145 | 5 | 148 | 8.0 | 8.0 | 0.00 | 0.00 | 0.00 | 61 | 1010.6 |
| 20260502181645 | 5 | 204 | 9.7 | 8.0 | 0.00 | 0.00 | 0.00 | 61 | 1010.6 |
| 20260502181146 | 5 | 253 | 11.3 | 4.8 | 0.00 | 0.00 | 0.00 | 60 | 1010.8 |
| 20260502180646 | 5 | 233 | 4.8 | 9.7 | 0.00 | 0.00 | 0.00 | 61 | 1010.8 |
| 20260502180147 | 5 | 211 | 6.4 | 11.3 | 0.00 | 0.00 | 0.00 | 61 | 1010.9 |
| 20260502170146 | 5 | 124 | 6.4 | 9.7 | 0.00 | 0.00 | 0.00 | 61 | 1012.3 |
| 20260502164146 | 4 | 89 | 6.4 | 4.8 | 0.00 | 0.00 | 0.00 | 63 | 1012.7 |
| 20260502163646 | 4 | 121 | 8.0 | 8.0 | 0.00 | 0.00 | 0.00 | 63 | 1012.8 |
| 20260502163146 | 5 | 79 | 6.4 | 4.8 | 0.00 | 0.00 | 0.00 | 63 | 1013.0 |
| 20260502162647 | 4 | 138 | 8.0 | 6.4 | 0.00 | 0.00 | 0.00 | 62 | 1013.1 |
| 20260502162145 | 5 | 169 | 3.2 | 1.6 | 0.00 | 0.00 | 0.00 | 64 | 1013.3 |
| 20260502161645 | 4 | 103 | 4.8 | 9.7 | 0.00 | 0.00 | 0.00 | 64 | 1013.5 |
| 20260502161146 | 4 | 93 | 8.0 | 3.2 | 0.00 | 0.00 | 0.00 | 62 | 1013.6 |
| 20260502160646 | 4 | 100 | 6.4 | 3.2 | 0.00 | 0.00 | 0.00 | 63 | 1013.6 |
| 20260502160146 | 4 | 93 | 4.8 | 3.2 | 0.00 | 0.00 | 0.00 | 63 | 1013.8 |
| 20260502152144 | 3 | 114 | 8.0 | 3.2 | 0.00 | 0.00 | 0.00 | 65 | 1014.7 |
| 20260502151645 | 3 | 93 | 6.4 | 3.2 | 0.00 | 0.00 | 0.00 | 66 | 1014.8 |
| 20260502151145 | 3 | 104 | 8.0 | 4.8 | 0.00 | 0.00 | 0.00 | 65 | 1014.9 |
| 20260502150645 | 3 | 177 | 6.4 | 4.8 | 0.00 | 0.00 | 0.00 | 65 | 1015.1 |
| 20260502150146 | 3 | 120 | 4.8 | 3.2 | 0.00 | 0.00 | 0.00 | 66 | 1015.2 |
| 20260502130642 | 1 | 38 | 0.0 | 0.0 | 0.00 | 0.00 | 0.00 | 84 | 1017.7 |
| 20260502130142 | 0 | 38 | 0.0 | 0.0 | 0.00 | 0.00 | 0.00 | 87 | 1017.8 |
| 20260502123641 | -1 | 52 | 0.0 | 0.0 | 0.00 | 0.00 | 0.00 | 95 | 1018.2 |
| 20260502123141 | -1 | 52 | 0.0 | 0.0 | 0.00 | 0.00 | 0.00 | 94 | 1018.2 |
| 20260502122641 | -1 | 52 | 0.0 | 0.0 | 0.00 | 0.00 | 0.00 | 95 | 1018.3 |
| 20260502122138 | -1 | 55 | 0.0 | 0.0 | 0.00 | 0.00 | 0.00 | 95 | 1018.4 |
| 20260502121639 | -1 | 76 | 0.0 | 3.2 | 0.00 | 0.00 | 0.00 | 95 | 1018.4 |
| 20260502121139 | -1 | 48 | 0.0 | 0.0 | 0.00 | 0.00 | 0.00 | 95 | 1018.6 |
| 20260502120639 | -1 | 48 | 0.0 | 0.0 | 0.00 | 0.00 | 0.00 | 95 | 1018.6 |
| 20260502120139 | -1 | 48 | 0.0 | 0.0 | 0.00 | 0.00 | 0.00 | 95 | 1018.7 |
| 20260502115640 | -1 | 48 | 0.0 | 0.0 | 0.00 | 0.00 | 0.00 | 96 | 1018.8 |
| 20260502115137 | -2 | 31 | 0.0 | 0.0 | 0.00 | 0.00 | 0.00 | 96 | 1018.8 |
| 20260502114637 | -2 | 24 | 1.6 | 1.6 | 0.00 | 0.00 | 0.00 | 96 | 1018.9 |
| 20260502114138 | -2 | 49 | 1.6 | 3.2 | 0.00 | 0.00 | 0.00 | 96 | 1018.9 |
| 20260502113638 | -2 | 14 | 0.0 | 0.0 | 0.00 | 0.00 | 0.00 | 96 | 1019.0 |
| 20260502113138 | -2 | 14 | 0.0 | 0.0 | 0.00 | 0.00 | 0.00 | 96 | 1018.9 |
| 20260502112639 | -2 | 14 | 0.0 | 0.0 | 0.00 | 0.00 | 0.00 | 96 | 1018.9 |
| 20260502112136 | -2 | 42 | 1.6 | 1.6 | 0.00 | 0.00 | 0.00 | 96 | 1018.9 |
| 20260502111636 | -2 | 23 | 0.0 | 1.6 | 0.00 | 0.00 | 0.00 | 96 | 1019.0 |
| 20260502111136 | -2 | 13 | 1.6 | 1.6 | 0.00 | 0.00 | 0.00 | 96 | 1019.0 |
| 20260502110636 | -1 | 34 | 4.8 | 3.2 | 0.00 | 0.00 | 0.00 | 96 | 1018.9 |
| 20260502110137 | -1 | 49 | 4.8 | 4.8 | 0.00 | 0.00 | 0.00 | 96 | 1019.0 |
| 20260502105637 | -1 | 31 | 3.2 | 3.2 | 0.00 | 0.00 | 0.00 | 95 | 1018.9 |
| 20260502105134 | -1 | 31 | 4.8 | 3.2 | 0.00 | 0.00 | 0.00 | 95 | 1018.9 |
| 20260502104635 | -1 | 31 | 3.2 | 3.2 | 0.00 | 0.00 | 0.00 | 95 | 1019.0 |
| 20260502104135 | -1 | 48 | 1.6 | 1.6 | 0.00 | 0.00 | 0.00 | 95 | 1018.9 |
| 20260502103635 | -1 | 25 | 3.2 | 4.8 | 0.00 | 0.00 | 0.00 | 95 | 1018.9 |
| 20260502103135 | -1 | 18 | 3.2 | 3.2 | 0.00 | 0.00 | 0.00 | 95 | 1018.9 |
| 20260502102636 | -1 | 4 | 3.2 | 3.2 | 0.00 | 0.00 | 0.00 | 95 | 1018.8 |
| 20260502102133 | -1 | 30 | 4.8 | 4.8 | 0.00 | 0.00 | 0.00 | 95 | 1018.8 |
| 20260502101633 | -1 | 53 | 3.2 | 4.8 | 0.00 | 0.00 | 0.00 | 95 | 1018.7 |
| 20260502101133 | -1 | 38 | 4.8 | 3.2 | 0.00 | 0.00 | 0.00 | 95 | 1018.8 |
| 20260502100634 | -1 | 39 | 4.8 | 3.2 | 0.00 | 0.00 | 0.00 | 94 | 1018.7 |
| 20260502100134 | -1 | 46 | 6.4 | 6.4 | 0.00 | 0.00 | 0.00 | 95 | 1018.7 |
| 20260502091130 | 0 | 32 | 1.6 | 3.2 | 0.00 | 0.00 | 0.00 | 93 | 1018.3 |
| 20260502090631 | 0 | 28 | 4.8 | 3.2 | 0.00 | 0.00 | 0.00 | 93 | 1018.2 |
| 20260502090131 | 0 | 34 | 4.8 | 4.8 | 0.00 | 0.00 | 0.00 | 93 | 1018.1 |
| 20260502071125 | 0 | 305 | 4.8 | 4.8 | 0.00 | 0.00 | 0.00 | 93 | 1018.2 |
| 20260502070625 | 0 | 8 | 4.8 | 3.2 | 0.00 | 0.00 | 0.00 | 92 | 1018.1 |
| 20260502070125 | 0 | 11 | 3.2 | 1.6 | 0.00 | 0.00 | 0.00 | 91 | 1018.1 |
| 20260502065626 | 0 | 7 | 1.6 | 1.6 | 0.00 | 0.00 | 0.00 | 91 | 1018.1 |
| 20260502065123 | 0 | 7 | 4.8 | 3.2 | 0.00 | 0.00 | 0.00 | 92 | 1018.0 |
| 20260502064623 | 0 | 6 | 3.2 | 3.2 | 0.00 | 0.00 | 0.00 | 91 | 1018.0 |
| 20260502064124 | 0 | 14 | 3.2 | 4.8 | 0.00 | 0.00 | 0.00 | 91 | 1017.9 |
| 20260502063624 | 0 | 10 | 3.2 | 3.2 | 0.00 | 0.00 | 0.00 | 91 | 1017.8 |
| 20260502063124 | 0 | 18 | 3.2 | 4.8 | 0.00 | 0.00 | 0.00 | 91 | 1017.7 |
| 20260502062624 | 0 | 10 | 3.2 | 3.2 | 0.00 | 0.00 | 0.00 | 90 | 1017.7 |
| 20260502062122 | 0 | 6 | 3.2 | 3.2 | 0.00 | 0.00 | 0.00 | 90 | 1017.7 |
| 20260502061622 | 0 | 14 | 3.2 | 4.8 | 0.00 | 0.00 | 0.00 | 90 | 1017.6 |
| 20260502061122 | 0 | 1 | 4.8 | 4.8 | 0.00 | 0.00 | 0.00 | 90 | 1017.6 |
| 20260502060623 | 0 | 3 | 3.2 | 3.2 | 0.00 | 0.00 | 0.00 | 90 | 1017.6 |
| 20260502060123 | 0 | 15 | 3.2 | 4.8 | 0.00 | 0.00 | 0.00 | 89 | 1017.5 |
| 20260502055623 | 0 | 7 | 3.2 | 4.8 | 0.00 | 0.00 | 0.00 | 88 | 1017.4 |
| 20260502055121 | 1 | 23 | 3.2 | 3.2 | 0.00 | 0.00 | 0.00 | 87 | 1017.4 |
| 20260502054621 | 1 | 17 | 1.6 | 1.6 | 0.00 | 0.00 | 0.00 | 87 | 1017.3 |
| 20260502054122 | 1 | 7 | 3.2 | 3.2 | 0.00 | 0.00 | 0.00 | 87 | 1017.3 |
| 20260502053622 | 1 | 8 | 3.2 | 4.8 | 0.00 | 0.00 | 0.00 | 87 | 1017.2 |
| 20260502053122 | 1 | 13 | 4.8 | 3.2 | 0.00 | 0.00 | 0.00 | 87 | 1017.2 |
| 20260502052623 | 1 | 13 | 4.8 | 3.2 | 0.00 | 0.00 | 0.00 | 87 | 1017.1 |
| 20260502052120 | 1 | 6 | 4.8 | 3.2 | 0.00 | 0.00 | 0.00 | 87 | 1017.1 |
| 20260502051621 | 1 | 10 | 4.8 | 6.4 | 0.00 | 0.00 | 0.00 | 87 | 1017.1 |
| 20260502051121 | 1 | 14 | 3.2 | 4.8 | 0.00 | 0.00 | 0.00 | 86 | 1017.0 |
| 20260502050621 | 1 | 17 | 3.2 | 3.2 | 0.00 | 0.00 | 0.00 | 84 | 1016.9 |
| 20260502050121 | 1 | 7 | 3.2 | 4.8 | 0.00 | 0.00 | 0.00 | 83 | 1016.9 |
| 20260502045622 | 2 | 14 | 3.2 | 3.2 | 0.00 | 0.00 | 0.00 | 83 | 1016.8 |
| 20260502045119 | 2 | 10 | 3.2 | 1.6 | 0.00 | 0.00 | 0.00 | 82 | 1016.7 |
| 20260502044620 | 2 | 10 | 3.2 | 1.6 | 0.00 | 0.00 | 0.00 | 82 | 1016.6 |
| 20260502044120 | 2 | 8 | 1.6 | 1.6 | 0.00 | 0.00 | 0.00 | 81 | 1016.6 |
| 20260502043620 | 2 | 17 | 3.2 | 3.2 | 0.00 | 0.00 | 0.00 | 80 | 1016.5 |
| 20260502043121 | 3 | 21 | 4.8 | 6.4 | 0.00 | 0.00 | 0.00 | 80 | 1016.5 |
| 20260502042621 | 3 | 15 | 4.8 | 6.4 | 0.00 | 0.00 | 0.00 | 79 | 1016.4 |
| 20260502042119 | 3 | 17 | 6.4 | 3.2 | 0.00 | 0.00 | 0.00 | 78 | 1016.3 |
| 20260502041619 | 3 | 18 | 6.4 | 6.4 | 0.00 | 0.00 | 0.00 | 78 | 1016.2 |
| 20260502041120 | 3 | 31 | 8.0 | 11.3 | 0.00 | 0.00 | 0.00 | 78 | 1016.0 |
| 20260502040620 | 3 | 24 | 6.4 | 8.0 | 0.00 | 0.00 | 0.00 | 78 | 1016.0 |
| 20260502040120 | 3 | 14 | 8.0 | 6.4 | 0.00 | 0.00 | 0.00 | 78 | 1015.9 |
| 20260502035621 | 3 | 13 | 9.7 | 8.0 | 0.00 | 0.00 | 0.00 | 77 | 1015.8 |
| 20260502035118 | 3 | 23 | 8.0 | 9.7 | 0.00 | 0.00 | 0.00 | 77 | 1015.7 |
| 20260502034619 | 3 | 8 | 11.3 | 6.4 | 0.00 | 0.00 | 0.00 | 76 | 1015.5 |
| 20260502034119 | 3 | 35 | 9.7 | 9.7 | 0.00 | 0.00 | 0.00 | 76 | 1015.4 |
| 20260502033620 | 3 | 32 | 12.9 | 8.0 | 0.00 | 0.00 | 0.00 | 76 | 1015.2 |
| 20260502033120 | 4 | 52 | 8.0 | 8.0 | 0.00 | 0.00 | 0.00 | 75 | 1015.1 |
| 20260502032620 | 4 | 46 | 9.7 | 16.1 | 0.00 | 0.00 | 0.00 | 74 | 1014.9 |
| 20260502032118 | 4 | 20 | 11.3 | 12.9 | 0.00 | 0.00 | 0.00 | 74 | 1014.7 |
| 20260502031618 | 5 | 38 | 12.9 | 14.5 | 0.00 | 0.00 | 0.00 | 73 | 1014.6 |
| 20260502031119 | 5 | 31 | 12.9 | 8.0 | 0.00 | 0.00 | 0.00 | 72 | 1014.5 |
| 20260502030619 | 5 | 23 | 9.7 | 11.3 | 0.00 | 0.00 | 0.00 | 72 | 1014.4 |
| 20260502030120 | 5 | 24 | 12.9 | 11.3 | 0.00 | 0.00 | 0.00 | 73 | 1014.2 |
| 20260502025620 | 5 | 14 | 11.3 | 9.7 | 0.00 | 0.00 | 0.00 | 73 | 1014.1 |
| 20260502025118 | 5 | 34 | 11.3 | 17.7 | 0.00 | 0.00 | 0.00 | 72 | 1013.9 |
| 20260502024618 | 5 | 18 | 14.5 | 12.9 | 0.00 | 0.00 | 0.00 | 72 | 1013.8 |
| 20260502024119 | 5 | 8 | 12.9 | 14.5 | 0.00 | 0.00 | 0.00 | 71 | 1013.8 |
| 20260502023619 | 6 | 23 | 16.1 | 14.5 | 0.00 | 0.00 | 0.00 | 71 | 1013.7 |
| 20260502023120 | 6 | 18 | 16.1 | 16.1 | 0.00 | 0.00 | 0.00 | 70 | 1013.6 |
| 20260502022620 | 6 | 25 | 6.4 | 6.4 | 0.00 | 0.00 | 0.00 | 70 | 1013.5 |
| 20260502022118 | 6 | 18 | 9.7 | 9.7 | 0.00 | 0.00 | 0.00 | 70 | 1013.4 |
| 20260502021618 | 6 | 18 | 9.7 | 11.3 | 0.00 | 0.00 | 0.00 | 71 | 1013.4 |
| 20260502021119 | 6 | 42 | 14.5 | 9.7 | 0.00 | 0.00 | 0.00 | 70 | 1013.4 |
| 20260502020619 | 6 | 3 | 14.5 | 11.3 | 0.00 | 0.00 | 0.00 | 70 | 1013.4 |
| 20260502020119 | 6 | 13 | 16.1 | 11.3 | 0.00 | 0.00 | 0.00 | 70 | 1013.3 |
| 20260502015620 | 6 | 31 | 14.5 | 16.1 | 0.00 | 0.00 | 0.00 | 69 | 1013.3 |
| 20260502015118 | 6 | 24 | 14.5 | 11.3 | 0.00 | 0.00 | 0.00 | 69 | 1013.4 |
| 20260502014618 | 6 | 359 | 12.9 | 8.0 | 0.00 | 0.00 | 0.00 | 68 | 1013.4 |
| 20260502014118 | 6 | 13 | 11.3 | 9.7 | 0.00 | 0.00 | 0.00 | 68 | 1013.3 |
| 20260502013619 | 6 | 17 | 12.9 | 14.5 | 0.00 | 0.00 | 0.00 | 67 | 1013.4 |
| 20260502013119 | 6 | 28 | 12.9 | 12.9 | 0.00 | 0.00 | 0.00 | 67 | 1013.4 |
| 20260502012620 | 6 | 4 | 14.5 | 16.1 | 0.00 | 0.00 | 0.00 | 67 | 1013.3 |
| 20260502012117 | 6 | 28 | 14.5 | 16.1 | 0.00 | 0.00 | 0.00 | 67 | 1013.3 |
| 20260502011618 | 6 | 25 | 16.1 | 17.7 | 0.00 | 0.00 | 0.00 | 67 | 1013.4 |
| 20260502011118 | 6 | 24 | 17.7 | 16.1 | 0.00 | 0.00 | 0.00 | 67 | 1013.4 |
| 20260502010619 | 6 | 15 | 16.1 | 8.0 | 0.00 | 0.00 | 0.00 | 67 | 1013.3 |
| 20260502010119 | 6 | 35 | 16.1 | 29.0 | 0.00 | 0.00 | 0.00 | 67 | 1013.4 |
| 20260502005620 | 6 | 20 | 16.1 | 14.5 | 0.00 | 0.00 | 0.00 | 67 | 1013.4 |
| 20260502005117 | 6 | 32 | 12.9 | 14.5 | 0.00 | 0.00 | 0.00 | 68 | 1013.3 |
| 20260502004617 | 6 | 23 | 20.9 | 27.4 | 0.00 | 0.00 | 0.00 | 67 | 1013.4 |
| 20260502004118 | 6 | 17 | 16.1 | 16.1 | 0.00 | 0.00 | 0.00 | 67 | 1013.3 |
| 20260502003618 | 6 | 30 | 14.5 | 24.1 | 0.00 | 0.00 | 0.00 | 66 | 1013.3 |
| 20260502003119 | 7 | 1 | 20.9 | 16.1 | 0.00 | 0.00 | 0.00 | 65 | 1013.3 |
| 20260502002619 | 7 | 1 | 17.7 | 17.7 | 0.00 | 0.00 | 0.00 | 66 | 1013.3 |
| 20260502002117 | 6 | 42 | 14.5 | 12.9 | 0.00 | 0.00 | 0.00 | 68 | 1013.2 |
| 20260502001617 | 6 | 3 | 16.1 | 16.1 | 0.00 | 0.00 | 0.00 | 67 | 1013.2 |
| 20260502001118 | 6 | 24 | 17.7 | 20.9 | 0.00 | 0.00 | 0.00 | 67 | 1013.1 |
| 20260502000618 | 6 | 7 | 12.9 | 14.5 | 0.00 | 0.00 | 0.00 | 67 | 1013.1 |
| 20260502000118 | 6 | 23 | 16.1 | 11.3 | 0.00 | 0.00 | 0.00 | 68 | 1013.0 |
| 20260501235619 | 6 | 11 | 16.1 | 19.3 | 0.00 | 0.00 | 0.00 | 68 | 1012.9 |
| 20260501235116 | 6 | 13 | 16.1 | 16.1 | 0.00 | 0.00 | 0.00 | 68 | 1012.9 |
| 20260501234617 | 6 | 18 | 12.9 | 19.3 | 0.00 | 0.00 | 0.00 | 70 | 1012.9 |
| 20260501234117 | 6 | 17 | 11.3 | 16.1 | 0.00 | 0.00 | 0.00 | 70 | 1012.8 |